sat.trackr.live / text

‹ back to catalog

STARLINK-35822

NORAD 66362 · 2025-254Q

PAYLOAD ACTIVE UNKNOWN

§ Identity

Operator
Country
US
Launch date
2025-11-06
Launch site
AFWTR
Launch vehicle
Mass (kg)
RCS (m²)

Purposes: comms

External: N2YO · Heavens-Above · Gunter

§ Orbital elements

Epoch: 2026-09-20T13:55:57.955296Z

Period
93.85 min
Inclination
53.1597°
Eccentricity
0.0001132
Mean motion
15.34398762 rev/d
Perigee alt
461.9 km
Apogee alt
463.5 km
Semi-major
6,840.8 km
B*
2.2134e-4
RAAN
45.1265°
Arg perigee
36.7105°
Mean anomaly
323.3976°
Rev number
4,884

§ Raw data

STARLINK-358221 66362U 25254Q   26263.58053189  .00007109  00000+0  22134-3 0  99902 66362  53.1597  45.1265 0001132  36.7105 323.3976 15.34398762 48842

JSON: /api/v1/satellites/66362 · /tle

For live sub-satellite position, see the globe view (requires WebGL).

§ Visibility from observer

Set your observer location to see the next 7 days of passes ≥ 10°. The values pass through the URL so the page stays shareable.

No JS? Fill the form by hand. The geolocation button needs JavaScript.